User: anonymous   Login
Location: Unspecified
(0.0000°N, 0.0000°E)
Time: 23:08:29
(UTC+00:00)
Language:

A-11 Canister half - Orbit

View from above orbital plane
View from above orbital plane
View from above satellite
View from above satellite

Ground track
Ground track

The orbit data is extracted from the following two-line orbital elements,

1 00053U 60009E   15183.72557472 -.00000085  00000-0  00000+0 0  9993
2 00053 047.2765 085.6953 0097344 127.0616 233.9121 12.17169976447899
Epoch (UTC): 02 July 2015 17:24:49
Eccentricity: 0.0097344
inclination: 47.2765°
perigee height: 1527 km
apogee height: 1682 km
right ascension of ascending node: 85.6953°
argument of perigee: 127.0616°
revolutions per day: 12.17169976
mean anomaly at epoch: 233.9121°
orbit number at epoch: 44789

The dashed part of the orbit path shows where the satellite is in the earth's shadow,  

DLR